Regional Weather Roundup
Issued by NWS

Home | Current Version | Previous Version | Graphics & Text | Print | Product List | Glossary Off
Versions: 1 2 3 4 5 6 7 8 9 10 11 12 13 14 15 16 17 18 19 20 21 22 23 24 25 26 27 28 29 30 31 32 33 34 35 36 37 38 39 40 41 42 43 44 45 46 47 48 49 50

000
ASUS43 KDTX 121101
RWRMI
MICHIGAN HOURLY REGIONAL WEATHER ROUNDUP
NATIONAL WEATHER SERVICE DETROIT/PONTIAC MI
600 AM EST TUE DEC 12 2017

NOTE: "FAIR" INDICATES FEW OR NO CLOUDS BELOW 12,000 FEET WITH NO
SIGNIFICANT WEATHER AND/OR OBSTRUCTION TO VISIBILITY.

MIZ047>049-052>055-059>063-066>070-074>076-081>083-121200-
SOUTHEAST LOWER MICHIGAN

CITY           SKY/WX    TMP DP  RH WIND       PRES   REMARKS
ADRIAN         CLOUDY    24  15  68 NW13G23   29.79R WCI  12
ALMA           CLEAR     18  11  72 NW13G20   29.82R WCI   5
ANN ARBOR      CLOUDY    23  13  65 NW15G33   29.76R HAZE    WCI  10
BAD AXE        CLOUDY    19   9  66 NW17G28   29.71R WCI   3
CARO           PTCLDY    19   9  65 NW18G30   29.75R WCI   3
DETROIT CITY   CLOUDY    25  16  68 NW9G25    29.72R WCI  15
DETROIT        LGT SNOW  26  17  68 NW17G31   29.75R BLWGSNOWWCI  13
FLINT          PTCLDY    19   8  62 NW18G33   29.77R WCI   4
GROSSE ILE     FLURRIES  27  20  75 MISG      29.73R
HILLSDALE      CLEAR     21  10  63 NW16G23   29.78R WCI   7
HOWELL         MOCLDY    20  11  66 NW20G28   29.76R HAZE    WCI   5

CITY           SKY/WX    TMP DP  RH WIND       PRES   REMARKS
JACKSON        CLOUDY    22  10  60 NW17G26   29.79R WCI   8
LAMBERTVILLE   CLOUDY    26  18  73 NW12G18   29.77R WCI  15
LANSING        PTCLDY    19  12  74 NW14G25   29.82R WCI   6
LAPEER         MOCLDY    20  10  66 NW9G18    29.74R WCI   9
MASON          PTCLDY    21   9  59 NW18G30   29.80R WCI   6
MT. CLEMENS    CLOUDY    24  13  63 NW15G28   29.70R WCI  11
PONTIAC        FRZ DRZL  21  13  71 NW25G37   29.71R BLWGSNOWWCI   4
PORT HOPE        N/A     21  12  68 NW33G46   29.67R WCI   2
PORT HURON     CLOUDY    23  10  58 NW18G30   29.70R WCI   9
TRI CITIES     PTCLDY    18   9  68 NW21G38   29.79R WCI   1
MIDLAND        FAIR      18   9  65 NW15G26   29.80R WCI   4
TROY           CLOUDY    25  18  74 NW13G20   29.75R WCI  14
SAGINAW HB     CLEAR     19  10  68 NW22G31   29.78R WCI   3
$$
MIZ043>046-050>051-056>058-064>065-071>073-077>080-121200-
SOUTHWEST LOWER MICHIGAN

CITY           SKY/WX    TMP DP  RH WIND       PRES   REMARKS
BATTLE CREEK   PTCLDY    20   9  62 NW16      29.85R WCI   6
BENTON HARBOR  LGT SNOW  25  15  66 N10G26    29.92R WCI  15
BIG RAPIDS     SNOW      17  13  86 N7        29.83R VSB 1/2 WCI   7
COLDWATER      CLEAR     21  10  60 NW12G21   29.84R WCI   9
FREMONT        MOCLDY    18  12  79 NW18G25   29.89R WCI   2
HOLLAND        LGT SNOW  21  15  78 N10G28    29.91R WCI  10
GRAND RAPIDS   PTCLDY    20  12  71 NW16G24   29.87R WCI   6
IONIA          FAIR      19  11  69 NW15G26   29.84R WCI   5
KALAMAZOO      CLEAR     20   9  62 NW15      29.87R WCI   6
LUDINGTON      LGT SNOW  19   9  66 N17G29    29.91R WCI   4
MARSHALL       PTCLDY    19  12  72 NW9       29.83R WCI   9
MOUNT PLEASANT MOCLDY    19  10  67 NW9       29.81R WCI   8
MUSKEGON       LGT SNOW  20  15  81 N17G28    29.93R VSB 3/4 WCI   5
SOUTH HAVEN    LGT SNOW  25  16  69 N21G32    29.91R WCI  10
$$
MIZ016>042-121200-
NORTHERN LOWER MICHIGAN

CITY           SKY/WX    TMP DP  RH WIND       PRES   REMARKS
ALPENA         MIX PCPN  14   8  77 NW17G32   29.74R WCI  -3
BEAVER ISLAND  MOCLDY    13   3  65 N15G26    29.90R WCI  -3
BELLAIRE       PTCLDY    15   4  63 N14G29    29.87S HAZE    WCI   0
CADILLAC       LGT SNOW  14   8  77 NW18G29   29.78S WCI  -3
CHARLEVOIX     CLOUDY    16   6  64 N21G30    29.89S HAZE    WCI  -2
FRANKFORT      LGT SNOW  19  11  69 NW21G31   29.91R WCI   3
GAYLORD        CLOUDY     9   1  70 VRB6      29.76S WCI  -1
GRAYLING       LGT SNOW  13   4  68 NW22G28   29.78R WCI  -6
HARBOR SPRINGS LGT SNOW  11   4  72 N14G20    29.86R WCI  -5
HOUGHTON LAKE  PTCLDY    13   3  64 NW17G36   29.78R WCI  -4
MANISTEE       LGT SNOW  19   8  62 NW20G32   29.90S WCI   3
OSCODA         PTCLDY    15   4  61 NW25G35   29.72R WCI  -5
PELLSTON       CLOUDY    10   2  69 N18G26    29.86R WCI  -8
ROGERS CITY    CLOUDY    12   6  76 NW22G32   29.78R HAZE    WCI  -7
TRAVERSE CITY  CLOUDY    18   9  68 N14G26    29.86S HAZE    WCI   4
$$
MIZ007>008-015-121200-
EASTERN UPPER MICHIGAN

CITY           SKY/WX    TMP DP  RH WIND       PRES   REMARKS
KINROSS        MOCLDY     2  -4  76 N21       29.84R WCI -20
MACKINAC ISLAN CLOUDY    11   3  71 N17G32    29.83R WCI  -6
NEWBERRY       LGT SNOW   8   7  95 N10G20    29.87S VSB 1   WCI  -6
S. S. MARIE    CLEAR      2  -7  66 N16G22    29.85R WCI -18
MUNISING         N/A     18  14  84 N30G41    29.94R WCI  -1
$$
MIZ004>006-011>014-085-121200-
CENTRAL UPPER MICHIGAN

CITY           SKY/WX    TMP DP  RH WIND       PRES   REMARKS
MANISTIQUE     LGT SNOW  11   5  76 N13G20    29.92R WCI  -4
ESCANABA       PTCLDY    10   0  63 NW13      29.97S WCI  -5
MENOMINEE      CLOUDY    12   1  61 N9G18     30.04R WCI   0
$$
MIZ001>003-009>011-084-121200-
WESTERN UPPER MICHIGAN

CITY           SKY/WX    TMP DP  RH WIND       PRES   REMARKS
IRON MOUNTAIN  CLOUDY    10   1  67 NW14G21   29.98R WCI  -6
HOUGHTON       LGT SNOW  10   2  69 N10       30.00S WCI  -4
COPPER HARBOR    N/A     14  10  84 NE30G37   30.02S WCI  -7
IRONWOOD       FLURRIES  11   4  73 NW10G20   30.06S WCI  -3
$$

ABBREVIATIONS USED IN REMARKS
   TC - TEMPERATURE IN CELSIUS
  WCI - WIND CHILL INDEX
   HX - HEAT INDEX
  VSB - VISIBILITY





USA.gov is the U.S. government's official web portal to all federal, state and local government web resources and services.